Weather reports worldwide

Advertisment
Toledo, Spain (8272): temperature & dewpoint: 16.09.2018 23:00:00 - 22.09.2018 23:00:00 (CEST)Toledo, Spain (8272): wind speed: 16.09.2018 23:00:00 - 22.09.2018 23:00:00 (CEST)Toledo, Spain (8272): wind direction: 16.09.2018 23:00:00 - 22.09.2018 23:00:00 (CEST)Toledo, Spain (8272): reduced air pressure: 16.09.2018 23:00:00 - 22.09.2018 23:00:00 (CEST)Toledo, Spain (8272): visibility: 16.09.2018 23:00:00 - 22.09.2018 23:00:00 (CEST)Toledo, Spain (8272): precipitation: 16.09.2018 23:00:00 - 22.09.2018 23:00:00 (CEST)
Date & Time tt [°C] td [°C] ff [km/h] ff [kn] dd ppp [hPa] vv [km] rr [mm]
22.09.2018 23:00:00 26,8 8,7 2 1 S 1020,4 20 -
22.09.2018 22:00:00 28,2 8,5 4 2 NNW 1019,6 20 0,0
22.09.2018 21:00:00 29,6 8,6 2 1 WNW 1019,0 20 0,0
22.09.2018 20:00:00 31,7 8,6 5 3 NNW 1018,2 20 -
22.09.2018 19:00:00 34,0 8,6 9 5 WNW 1017,6 20 0,0
22.09.2018 18:00:00 34,9 9,3 15 8 WNW 1017,4 20 0,0
22.09.2018 17:00:00 35,0 9,4 11 6 W 1017,5 20 -
22.09.2018 16:00:00 34,4 9,6 11 6 W 1018,2 20 0,0
22.09.2018 15:00:00 33,9 11,1 9 5 NNW 1018,8 20 0,0
22.09.2018 14:00:00 32,6 11,7 5 3 W 1019,6 20 -
22.09.2018 13:00:00 30,1 12,1 5 3 SSW 1020,6 20 0,0
22.09.2018 12:00:00 27,4 12,2 9 5 SSE 1021,4 20 0,0
22.09.2018 11:00:00 23,9 11,6 5 3 SE 1021,9 20 -
22.09.2018 10:00:00 21,7 11,1 5 3 SE 1021,9 20 0,0
22.09.2018 09:00:00 19,1 10,4 2 1 ENE 1022,1 20 0,0
22.09.2018 08:00:00 18,4 10,5 0 0 N 1021,6 18 -
22.09.2018 07:00:00 19,2 10,7 2 1 S 1021,1 20 0,0
22.09.2018 06:00:00 20,0 9,8 0 0 N 1020,6 20 0,0
22.09.2018 05:00:00 21,2 9,7 0 0 N 1019,8 20 -
22.09.2018 04:00:00 21,8 10,0 2 1 S 1019,6 20 0,0
22.09.2018 03:00:00 22,5 10,0 2 1 W 1019,5 20 0,0
22.09.2018 02:00:00 23,2 10,3 0 0 N 1019,4 20 -
22.09.2018 01:00:00 23,9 10,2 9 5 NW 1019,0 20 0,0
22.09.2018 00:00:00 25,0 10,5 4 2 W 1018,5 20 0,0
21.09.2018 23:00:00 25,8 10,4 5 3 W 1018,1 20 -
21.09.2018 22:00:00 27,2 10,0 2 1 W 1017,2 20 0,0
21.09.2018 21:00:00 28,5 9,2 9 5 N 1016,0 20 0,0
21.09.2018 20:00:00 30,3 9,8 9 5 N 1015,2 20 -
21.09.2018 19:00:00 32,1 10,2 8 4 NW 1014,6 20 0,0
21.09.2018 18:00:00 33,4 11,3 13 7 WNW 1014,0 20 0,0
21.09.2018 17:00:00 34,3 11,4 8 4 NNW 1013,9 20 -
21.09.2018 16:00:00 34,0 11,2 9 5 NW 1014,3 20 0,0
21.09.2018 15:00:00 32,4 11,5 9 5 WNW 1015,3 20 0,0
21.09.2018 14:00:00 31,5 12,8 8 4 SSE 1016,1 20 -
21.09.2018 13:00:00 29,4 13,2 9 5 SW 1017,1 20 0,0
21.09.2018 12:00:00 26,9 13,3 8 4 S 1017,8 20 0,0
21.09.2018 11:00:00 24,4 13,3 9 5 SE 1018,2 20 -
21.09.2018 10:00:00 22,6 13,6 2 1 E 1018,0 20 0,0
21.09.2018 09:00:00 19,8 12,3 2 1 N 1018,0 20 0,0
21.09.2018 08:00:00 18,5 12,3 2 1 NW 1017,7 20 -
21.09.2018 07:00:00 19,2 12,2 4 2 NNW 1017,4 20 0,0
21.09.2018 06:00:00 19,5 12,5 2 1 W 1017,0 20 0,0
21.09.2018 05:00:00 20,3 12,3 2 1 N 1016,6 20 -
21.09.2018 04:00:00 19,7 13,6 4 2 S 1016,9 20 0,0
21.09.2018 03:00:00 21,7 11,7 4 2 W 1016,6 20 0,0
21.09.2018 02:00:00 22,1 13,4 2 1 NNE 1016,2 20 -
21.09.2018 01:00:00 23,8 12,1 4 2 SSE 1016,0 20 0,0
21.09.2018 00:00:00 24,7 12,0 4 2 NW 1015,9 20 0,0
20.09.2018 23:00:00 24,5 13,7 2 1 SE 1016,1 20 -
20.09.2018 22:00:00 25,6 13,1 11 6 NNW 1015,9 20 0,0
20.09.2018 21:00:00 27,2 11,2 8 4 NE 1015,1 20 0,0
20.09.2018 20:00:00 29,2 11,3 21 11 W 1014,4 20 -
20.09.2018 19:00:00 31,3 10,6 8 4 NE 1013,5 20 0,0
20.09.2018 18:00:00 32,5 9,9 5 3 NW 1013,4 20 0,0
20.09.2018 17:00:00 33,2 10,5 8 4 WNW 1013,9 20 -
20.09.2018 16:00:00 34,1 11,3 9 5 SW 1014,2 20 0,0
20.09.2018 15:00:00 33,2 11,7 8 4 SSW 1015,0 20 0,0
20.09.2018 14:00:00 32,6 12,8 9 5 SE 1015,9 20 -
20.09.2018 13:00:00 30,4 14,9 8 4 ESE 1017,2 20 0,0
20.09.2018 12:00:00 27,1 15,1 9 5 SE 1018,3 20 0,0
20.09.2018 11:00:00 24,4 15,1 11 6 SE 1018,9 20 -
20.09.2018 10:00:00 21,6 15,2 11 6 E 1019,5 20 0,0
20.09.2018 09:00:00 19,5 14,7 8 4 ESE 1019,6 20 0,0
20.09.2018 08:00:00 18,5 13,8 9 5 E 1019,5 20 -
20.09.2018 07:00:00 18,7 11,0 5 3 E 1019,3 20 0,0
20.09.2018 06:00:00 19,2 10,7 4 2 E 1019,2 20 0,0
20.09.2018 05:00:00 19,7 10,7 2 1 E 1019,1 20 -
20.09.2018 04:00:00 20,7 11,1 4 2 ENE 1019,0 20 0,0
20.09.2018 03:00:00 21,3 11,6 8 4 ENE 1019,1 20 0,0
20.09.2018 02:00:00 22,1 11,5 9 5 E 1019,0 20 -
20.09.2018 01:00:00 23,8 11,5 5 3 NNW 1018,8 20 0,0
20.09.2018 00:00:00 24,8 11,4 2 1 W 1018,6 20 0,0
19.09.2018 23:00:00 25,5 11,3 5 3 WNW 1018,4 20 -
19.09.2018 22:00:00 26,5 11,4 4 2 E 1017,6 20 0,0
19.09.2018 21:00:00 28,4 10,6 4 2 N 1016,7 20 0,0
19.09.2018 20:00:00 30,2 11,2 4 2 S 1016,3 20 -
19.09.2018 19:00:00 31,6 10,9 4 2 W 1015,7 20 0,0
19.09.2018 18:00:00 32,6 11,2 8 4 S 1015,3 6 0,0
19.09.2018 17:00:00 32,6 11,7 5 3 N 1015,6 20 -
19.09.2018 16:00:00 32,4 11,5 8 4 W 1016,2 20 0,0
19.09.2018 15:00:00 32,4 12,6 5 3 SSE 1016,8 20 0,0
19.09.2018 14:00:00 30,7 13,5 11 6 SE 1017,8 20 -
19.09.2018 13:00:00 28,5 15,1 11 6 SE 1018,6 20 0,0
19.09.2018 12:00:00 26,2 15,0 13 7 E 1019,4 20 0,0
19.09.2018 11:00:00 22,9 15,5 9 5 E 1020,0 20 -
19.09.2018 10:00:00 20,5 14,8 15 8 ESE 1019,9 20 0,0
19.09.2018 09:00:00 18,6 15,1 8 4 ESE 1019,8 19 0,0
19.09.2018 08:00:00 17,6 14,9 8 4 ESE 1019,5 19 -
19.09.2018 07:00:00 18,4 14,7 9 5 ESE 1018,8 20 0,0
19.09.2018 06:00:00 19,0 14,9 5 3 SE 1018,3 20 0,0
19.09.2018 05:00:00 19,3 14,1 8 4 E 1018,1 20 -
19.09.2018 04:00:00 19,7 12,9 9 5 E 1017,9 20 0,0
19.09.2018 03:00:00 20,1 12,6 4 2 E 1017,9 20 0,0
19.09.2018 02:00:00 21,0 12,9 0 0 N 1017,9 20 -
19.09.2018 01:00:00 21,9 13,0 5 3 NE 1017,7 20 0,0
19.09.2018 00:00:00 22,8 12,7 5 3 ENE 1017,3 20 0,0
18.09.2018 23:00:00 23,3 12,6 2 1 NE 1016,8 20 -
18.09.2018 22:00:00 24,2 12,2 13 7 NE 1016,2 20 0,0
18.09.2018 21:00:00 25,5 12,7 9 5 NE 1014,8 20 0,0
18.09.2018 20:00:00 27,3 12,5 13 7 N 1014,0 20 -
18.09.2018 19:00:00 27,5 12,7 24 13 N 1013,6 20 0,0
18.09.2018 18:00:00 30,2 12,1 9 5 NW 1012,7 20 0,0
18.09.2018 17:00:00 30,4 12,8 11 6 NNW 1012,6 20 -
18.09.2018 16:00:00 31,2 14,4 9 5 NNW 1012,3 20 0,0
18.09.2018 15:00:00 29,4 15,1 5 3 ENE 1013,3 20 0,0
18.09.2018 14:00:00 28,8 16,0 8 4 SE 1014,2 20 -
18.09.2018 13:00:00 26,8 16,4 9 5 S 1015,1 20 0,0
18.09.2018 12:00:00 25,1 16,3 9 5 SSE 1015,9 20 0,0
18.09.2018 11:00:00 23,0 15,6 11 6 ESE 1016,3 20 -
18.09.2018 10:00:00 20,9 15,4 9 5 ESE 1016,2 19 0,0
18.09.2018 09:00:00 18,6 14,9 9 5 ESE 1016,2 20 0,0
18.09.2018 08:00:00 17,4 14,1 4 2 E 1016,0 20 -
18.09.2018 07:00:00 18,0 14,5 8 4 ESE 1015,6 20 0,0
18.09.2018 06:00:00 18,2 13,7 4 2 E 1015,4 20 0,0
18.09.2018 05:00:00 18,9 13,7 5 3 NE 1015,5 20 -
18.09.2018 04:00:00 19,7 14,1 9 5 E 1015,1 20 0,0
18.09.2018 03:00:00 20,7 14,6 13 7 E 1015,1 20 0,0
18.09.2018 02:00:00 21,3 14,5 15 8 E 1015,0 20 -
18.09.2018 01:00:00 21,7 14,1 13 7 E 1015,2 20 0,0
18.09.2018 00:00:00 22,5 14,1 9 5 NE 1015,1 20 0,0
17.09.2018 23:00:00 22,9 13,7 11 6 N 1014,1 20 -
17.09.2018 22:00:00 23,3 13,2 9 5 W 1013,1 20 0,0
17.09.2018 21:00:00 25,2 13,7 15 8 WSW 1012,7 20 0,0
17.09.2018 20:00:00 28,3 13,4 15 8 SSW 1011,0 20 -
17.09.2018 19:00:00 29,3 13,9 13 7 SE 1010,2 20 0,0
17.09.2018 18:00:00 26,7 13,8 15 8 E 1011,3 20 0,0
17.09.2018 17:00:00 30,6 12,5 9 5 SSE 1010,8 20 -
17.09.2018 16:00:00 31,5 12,8 9 5 ENE 1011,4 20 0,0
17.09.2018 15:00:00 31,7 13,5 9 5 ESE 1012,5 20 0,0
17.09.2018 14:00:00 30,8 14,4 13 7 ESE 1013,6 20 -
17.09.2018 13:00:00 29,0 15,2 11 6 E 1014,7 20 0,0
17.09.2018 12:00:00 26,1 15,2 13 7 ESE 1016,0 20 0,0
17.09.2018 11:00:00 24,2 14,0 16 9 ESE 1016,9 20 -
17.09.2018 10:00:00 22,0 13,9 21 11 E 1017,3 20 0,0
17.09.2018 09:00:00 20,7 14,1 18 10 E 1017,4 20 0,0
17.09.2018 08:00:00 19,8 15,0 16 9 E 1017,4 20 -
17.09.2018 07:00:00 20,6 15,4 8 4 E 1017,1 20 0,0
17.09.2018 06:00:00 21,0 14,9 13 7 ESE 1016,8 20 0,0
17.09.2018 05:00:00 21,5 13,9 15 8 ESE 1016,9 20 -
17.09.2018 04:00:00 22,1 8,6 11 6 E 1017,0 20 0,0
17.09.2018 03:00:00 21,8 7,2 11 6 E 1017,2 20 0,0
17.09.2018 02:00:00 23,2 7,7 5 3 SE 1017,0 20 -
17.09.2018 01:00:00 23,0 7,9 8 4 E 1017,3 20 0,0
17.09.2018 00:00:00 24,9 8,4 2 1 SSW 1017,1 20 0,0
16.09.2018 23:00:00 25,8 8,3 2 1 SE 1016,8 20 -

tt = temperature
td = dewpoint
ff = wind speed
dd = wind direction
ppp = reduced air pressure
vv = visibility
rr = precipitation

Next stations